| time (UTC) | temp F | wind direction | speed MPH | gust MPH | rain 1hr in | rain 24hr in | rain mn in | humidity % | barometer mb |
| 20260503222109 | 58 | 278 | 8.0 | 13.0 | 0.00 | 0.19 | 0.06 | 64 | 1012.4 |
| 20260503221210 | 58 | 279 | 8.0 | 16.0 | 0.00 | 0.19 | 0.06 | 64 | 1012.2 |
| 20260503214510 | 58 | 269 | 8.0 | 15.0 | 0.00 | 0.19 | 0.06 | 64 | 1011.8 |
| 20260503213610 | 58 | 272 | 8.0 | 15.0 | 0.00 | 0.19 | 0.06 | 64 | 1011.6 |
| 20260503212710 | 58 | 275 | 7.0 | 15.0 | 0.00 | 0.19 | 0.06 | 64 | 1011.6 |
| 20260503211810 | 58 | 285 | 8.0 | 17.0 | 0.00 | 0.19 | 0.06 | 64 | 1011.5 |
| 20260503210910 | 58 | 279 | 9.0 | 17.0 | 0.00 | 0.19 | 0.06 | 64 | 1011.4 |
| 20260503210009 | 58 | 284 | 9.0 | 15.0 | 0.00 | 0.19 | 0.06 | 64 | 1011.4 |
| 20260503203309 | 58 | 282 | 9.0 | 17.0 | 0.00 | 0.19 | 0.06 | 64 | 1011.1 |
| 20260503202410 | 58 | 290 | 9.0 | 17.0 | 0.00 | 0.19 | 0.06 | 64 | 1011.0 |
| 20260503200609 | 57 | 281 | 10.0 | 17.0 | 0.00 | 0.19 | 0.06 | 64 | 1010.7 |
| 20260503195709 | 58 | 293 | 7.0 | 15.0 | 0.00 | 0.19 | 0.06 | 64 | 1010.7 |
| 20260503194809 | 58 | 290 | 7.0 | 14.0 | 0.00 | 0.19 | 0.06 | 64 | 1010.8 |
| 20260503193909 | 58 | 289 | 7.0 | 15.0 | 0.00 | 0.19 | 0.06 | 64 | 1010.7 |
| 20260503193010 | 58 | 284 | 8.0 | 15.0 | 0.00 | 0.19 | 0.06 | 64 | 1010.7 |
| 20260503192109 | 58 | 279 | 10.0 | 20.0 | 0.00 | 0.19 | 0.06 | 64 | 1010.7 |
| 20260503191209 | 58 | 280 | 8.0 | 15.0 | 0.00 | 0.19 | 0.06 | 64 | 1010.5 |
| 20260503190309 | 58 | 274 | 10.0 | 21.0 | 0.00 | 0.19 | 0.06 | 64 | 1010.5 |
| 20260503184509 | 57 | 279 | 12.0 | 23.0 | 0.00 | 0.19 | 0.06 | 65 | 1010.4 |
| 20260503182709 | 57 | 287 | 10.0 | 18.0 | 0.00 | 0.19 | 0.06 | 65 | 1010.4 |
| 20260503181809 | 57 | 282 | 8.0 | 16.0 | 0.00 | 0.20 | 0.06 | 65 | 1010.4 |
| 20260503180909 | 57 | 283 | 10.0 | 23.0 | 0.00 | 0.20 | 0.06 | 65 | 1010.4 |
| 20260503180008 | 57 | 287 | 9.0 | 15.0 | 0.00 | 0.23 | 0.06 | 65 | 1010.4 |
| 20260503174208 | 57 | 290 | 10.0 | 18.0 | 0.00 | 0.24 | 0.06 | 65 | 1010.6 |
| 20260503173309 | 56 | 290 | 10.0 | 18.0 | 0.00 | 0.26 | 0.06 | 65 | 1010.7 |
| 20260503172409 | 56 | 291 | 10.0 | 18.0 | 0.00 | 0.26 | 0.06 | 65 | 1010.8 |
| 20260503171508 | 56 | 290 | 7.0 | 16.0 | 0.00 | 0.29 | 0.06 | 65 | 1010.8 |
| 20260503170609 | 56 | 290 | 7.0 | 15.0 | 0.00 | 0.30 | 0.06 | 65 | 1010.8 |
| 20260503150909 | 57 | 290 | 11.0 | 23.0 | 0.02 | 0.28 | 0.02 | 63 | 1011.1 |
| 20260503130308 | 56 | 297 | 10.0 | 19.0 | 0.00 | 0.27 | 0.27 | 64 | 1011.8 |
| 20260503110609 | 57 | 286 | 9.0 | 19.0 | 0.11 | 0.27 | 0.27 | 65 | 1011.6 |
| 20260503081508 | 61 | 305 | 8.0 | 17.0 | 0.00 | 0.16 | 0.16 | 56 | 1010.2 |
| 20260503071207 | 60 | 320 | 9.0 | 18.0 | 0.00 | 0.16 | 0.16 | 58 | 1010.1 |
| 20260503070307 | 60 | 323 | 9.0 | 17.0 | 0.01 | 0.16 | 0.16 | 58 | 1010.1 |
| 20260503055107 | 62 | 292 | 13.0 | 24.0 | 0.01 | 0.20 | 0.15 | 54 | 1010.0 |
| 20260503053307 | 64 | 307 | 12.0 | 21.0 | 0.00 | 0.21 | 0.14 | 47 | 1009.8 |
| 20260503052407 | 65 | 297 | 13.0 | 23.0 | 0.00 | 0.22 | 0.14 | 46 | 1009.7 |
| 20260503051507 | 65 | 306 | 13.0 | 24.0 | 0.00 | 0.22 | 0.14 | 44 | 1009.7 |
| 20260503050607 | 65 | 310 | 13.0 | 24.0 | 0.00 | 0.22 | 0.14 | 46 | 1009.5 |
| 20260503045707 | 65 | 315 | 13.0 | 24.0 | 0.00 | 0.23 | 0.14 | 45 | 1009.7 |
| 20260503043907 | 64 | 303 | 13.0 | 24.0 | 0.00 | 0.24 | 0.14 | 46 | 1009.6 |
| 20260503042107 | 65 | 307 | 11.0 | 22.0 | 0.00 | 0.28 | 0.14 | 46 | 1009.7 |
| 20260503041207 | 64 | 299 | 13.0 | 26.0 | 0.00 | 0.30 | 0.14 | 46 | 1009.8 |
| 20260503040307 | 65 | 308 | 15.0 | 26.0 | 0.00 | 0.30 | 0.14 | 45 | 1009.9 |
| 20260503033607 | 66 | 301 | 10.0 | 20.0 | 0.00 | 0.31 | 0.14 | 46 | 1010.1 |
| 20260503031807 | 66 | 304 | 12.0 | 22.0 | 0.00 | 0.31 | 0.14 | 46 | 1010.2 |
| 20260503030907 | 64 | 305 | 15.0 | 28.0 | 0.00 | 0.31 | 0.14 | 49 | 1010.3 |
| 20260503030007 | 63 | 297 | 13.0 | 24.0 | 0.00 | 0.31 | 0.14 | 50 | 1010.5 |
| 20260503025107 | 63 | 303 | 14.0 | 27.0 | 0.00 | 0.31 | 0.14 | 48 | 1010.5 |
| 20260503024206 | 64 | 298 | 13.0 | 24.0 | 0.00 | 0.31 | 0.14 | 47 | 1010.5 |
| 20260503023307 | 65 | 305 | 14.0 | 25.0 | 0.00 | 0.31 | 0.14 | 45 | 1010.6 |
| 20260503022407 | 65 | 323 | 13.0 | 24.0 | 0.00 | 0.31 | 0.14 | 50 | 1010.6 |
| 20260503021507 | 64 | 321 | 11.0 | 24.0 | 0.00 | 0.31 | 0.14 | 51 | 1010.6 |
| 20260503020607 | 62 | 326 | 13.0 | 26.0 | 0.00 | 0.31 | 0.14 | 53 | 1010.7 |
| 20260503015707 | 62 | 321 | 12.0 | 22.0 | 0.00 | 0.31 | 0.14 | 55 | 1010.7 |
| 20260503014807 | 62 | 320 | 13.0 | 25.0 | 0.00 | 0.31 | 0.14 | 52 | 1010.7 |
| 20260503013906 | 62 | 320 | 14.0 | 28.0 | 0.00 | 0.31 | 0.14 | 52 | 1010.7 |
| 20260503013007 | 63 | 316 | 13.0 | 22.0 | 0.00 | 0.31 | 0.14 | 51 | 1010.7 |
| 20260503011207 | 62 | 312 | 14.0 | 24.0 | 0.00 | 0.31 | 0.14 | 53 | 1010.8 |
| 20260503004507 | 61 | 326 | 13.0 | 23.0 | 0.00 | 0.31 | 0.14 | 55 | 1010.9 |
| 20260503003607 | 61 | 320 | 12.0 | 22.0 | 0.00 | 0.31 | 0.14 | 55 | 1010.9 |
| 20260503002707 | 61 | 322 | 10.0 | 17.0 | 0.00 | 0.31 | 0.14 | 55 | 1011.0 |
| 20260503001807 | 60 | 327 | 11.0 | 20.0 | 0.00 | 0.31 | 0.14 | 57 | 1011.2 |
| 20260503000906 | 60 | 335 | 9.0 | 17.0 | 0.00 | 0.31 | 0.14 | 56 | 1011.1 |
| 20260502234206 | 60 | 336 | 8.0 | 15.0 | 0.00 | 0.31 | 0.14 | 58 | 1011.1 |
| 20260502233306 | 59 | 339 | 8.0 | 15.0 | 0.00 | 0.31 | 0.14 | 58 | 1011.0 |
| 20260502232406 | 58 | 334 | 8.0 | 19.0 | 0.00 | 0.31 | 0.14 | 60 | 1011.2 |
| 20260502231507 | 57 | 346 | 8.0 | 15.0 | 0.00 | 0.32 | 0.14 | 62 | 1011.1 |
| 20260502230607 | 55 | 344 | 8.0 | 14.0 | 0.00 | 0.33 | 0.14 | 64 | 1011.1 |
| 20260502225706 | 55 | 344 | 8.0 | 14.0 | 0.00 | 0.33 | 0.14 | 65 | 1011.1 |
| 20260502224807 | 54 | 349 | 8.0 | 16.0 | 0.00 | 0.33 | 0.14 | 66 | 1011.1 |
| 20260502223006 | 53 | 354 | 8.0 | 16.0 | 0.00 | 0.33 | 0.14 | 67 | 1011.2 |